Time,TemperatureF,DewpointF,PressureIn,WindDirection,WindDirectionDegrees,WindSpeedMPH,WindSpeedGustMPH,Humidity,HourlyPrecipIn,Conditions,Clouds,dailyrainin,SoftwareType,DateUTC
2013-03-03 00:00:00,32.5,29.1,29.73,NW,318,9.4,0.0,87,6.26,,---,0.00,VWS V12.08,2013-03-03 05:00:00,
2013-03-03 00:05:00,32.5,32.5,29.58,WNW,300,9.3,17.1,100,0.00,,---,0.00,VWS V12.08,2013-03-03 05:05:00,
2013-03-03 00:10:00,32.1,28.5,29.72,NNW,336,8.7,0.0,86,6.26,,---,0.00,VWS V12.08,2013-03-03 05:10:00,
2013-03-03 00:15:00,31.9,28.3,29.72,WNW,290,8.0,18.8,86,6.26,,---,0.00,VWS V12.08,2013-03-03 05:15:00,
2013-03-03 00:20:00,31.7,28.1,29.73,NNW,333,10.2,18.8,86,6.26,,---,0.00,VWS V12.08,2013-03-03 05:20:00,
2013-03-03 00:25:00,32.4,28.6,29.73,NW,323,7.0,18.8,86,6.26,,---,0.00,VWS V12.08,2013-03-03 05:25:00,
2013-03-03 00:30:00,45.6,40.4,30.17,ENE,68,0.0,9.5,82,0.00,,---,0.00,VWS V12.08,2013-03-03 05:30:00,
2013-03-03 00:35:00,31.3,27.5,29.73,NW,308,9.4,18.8,86,6.26,,---,0.00,VWS V12.08,2013-03-03 05:35:00,
2013-03-03 00:40:00,31.4,27.5,29.73,NNW,333,6.5,18.8,85,6.26,,---,0.00,VWS V12.08,2013-03-03 05:40:00,
2013-03-03 00:45:00,31.9,28.0,29.73,NW,326,9.8,18.8,85,6.26,,---,0.00,VWS V12.08,2013-03-03 05:45:00,
2013-03-03 00:50:00,31.5,27.5,29.73,West,281,8.5,18.8,85,6.26,,---,0.00,VWS V12.08,2013-03-03 05:50:00,
2013-03-03 00:55:00,32.1,28.1,29.73,WNW,302,7.8,18.8,85,6.26,,---,0.00,VWS V12.08,2013-03-03 05:55:00,
2013-03-03 01:00:00,31.9,27.8,29.73,WNW,300,10.8,18.8,85,6.26,,---,0.00,VWS V12.08,2013-03-03 06:00:00,
2013-03-03 01:05:00,31.9,27.7,29.73,WNW,290,9.4,18.8,84,6.26,,---,0.00,VWS V12.08,2013-03-03 06:05:00,
2013-03-03 01:10:00,31.6,27.4,29.73,NW,315,8.9,18.8,84,6.26,,---,0.00,VWS V12.08,2013-03-03 06:10:00,
2013-03-03 01:15:00,31.3,27.0,29.73,WNW,284,6.9,18.8,84,6.26,,---,0.00,VWS V12.08,2013-03-03 06:15:00,
2013-03-03 01:20:00,31.5,27.1,29.73,NW,326,4.8,18.8,84,6.26,,---,0.00,VWS V12.08,2013-03-03 06:20:00,
2013-03-03 01:25:00,31.7,27.2,29.73,WNW,300,6.2,0.0,83,6.26,,---,0.00,VWS V12.08,2013-03-03 06:25:00,
2013-03-03 01:30:00,31.3,26.9,29.73,WNW,290,5.2,18.8,83,6.26,,---,0.00,VWS V12.08,2013-03-03 06:30:00,
2013-03-03 01:35:00,31.8,27.2,29.73,NW,322,11.5,18.8,83,6.26,,---,0.00,VWS V12.08,2013-03-03 06:35:00,
2013-03-03 01:40:00,31.5,26.9,29.73,West,277,8.5,18.8,83,6.26,,---,0.00,VWS V12.08,2013-03-03 06:40:00,
2013-03-03 01:45:00,31.2,26.6,29.73,WNW,302,7.9,18.8,83,6.26,,---,0.00,VWS V12.08,2013-03-03 06:45:00,
2013-03-03 01:50:00,31.7,27.1,29.73,North,6,7.7,18.8,83,6.26,,---,0.00,VWS V12.08,2013-03-03 06:50:00,
2013-03-03 01:55:00,31.7,27.1,29.73,NNW,335,5.7,18.8,83,6.26,,---,0.00,VWS V12.08,2013-03-03 06:55:00,
2013-03-03 02:00:00,31.7,27.1,29.73,WNW,292,7.8,18.8,83,6.26,,---,0.00,VWS V12.08,2013-03-03 07:00:00,
2013-03-03 02:05:00,31.5,26.9,29.72,WNW,301,8.6,18.8,83,6.26,,---,0.00,VWS V12.08,2013-03-03 07:05:00,
2013-03-03 02:10:00,31.1,26.5,29.72,NW,305,6.6,18.8,83,6.26,,---,0.00,VWS V12.08,2013-03-03 07:10:00,
2013-03-03 02:15:00,31.3,26.6,29.72,WNW,294,8.7,18.8,83,6.26,,---,0.00,VWS V12.08,2013-03-03 07:15:00,
2013-03-03 02:20:00,31.6,26.9,29.72,North,353,6.7,18.8,82,6.26,,---,0.00,VWS V12.08,2013-03-03 07:20:00,
2013-03-03 02:25:00,31.5,26.7,29.72,WNW,301,8.1,18.8,82,6.26,,---,0.00,VWS V12.08,2013-03-03 07:25:00,
2013-03-03 02:30:00,31.3,26.5,29.72,WNW,301,8.0,18.8,82,6.26,,---,0.00,VWS V12.08,2013-03-03 07:30:00,
2013-03-03 02:35:00,30.9,26.1,29.72,WNW,285,10.1,18.8,82,6.26,,---,0.00,VWS V12.08,2013-03-03 07:35:00,
2013-03-03 02:40:00,31.1,26.2,29.71,NW,314,11.0,18.8,82,6.26,,---,0.00,VWS V12.08,2013-03-03 07:40:00,
2013-03-03 02:45:00,31.3,26.4,29.71,NNE,21,10.4,18.8,82,6.26,,---,0.00,VWS V12.08,2013-03-03 07:45:00,
2013-03-03 02:50:00,31.4,26.4,29.71,NNW,340,12.4,18.8,82,6.26,,---,0.00,VWS V12.08,2013-03-03 07:50:00,
2013-03-03 02:55:00,31.3,26.3,29.71,NW,322,6.5,18.8,81,6.26,,---,0.00,VWS V12.08,2013-03-03 07:55:00,
2013-03-03 03:00:00,31.1,26.0,29.71,WNW,301,10.9,18.8,81,6.26,,---,0.00,VWS V12.08,2013-03-03 08:00:00,
2013-03-03 03:05:00,37.7,35.5,29.32,West,280,6.8,13.3,92,1.03,,---,1.03,VWS V12.08,2013-03-03 08:05:00,
2013-03-03 03:10:00,31.5,26.4,29.71,NW,307,6.4,18.8,81,6.26,,---,0.00,VWS V12.08,2013-03-03 08:10:00,
2013-03-03 03:15:00,31.0,25.9,29.71,WNW,301,7.1,18.8,81,6.26,,---,0.00,VWS V12.08,2013-03-03 08:15:00,
2013-03-03 03:20:00,31.0,25.8,29.71,WNW,284,5.1,18.8,81,6.26,,---,0.00,VWS V12.08,2013-03-03 08:20:00,
2013-03-03 03:25:00,31.4,26.2,29.71,WNW,291,4.7,18.8,81,6.26,,---,0.00,VWS V12.08,2013-03-03 08:25:00,
2013-03-03 03:30:00,31.0,25.7,29.71,WNW,301,6.8,18.8,80,6.26,,---,0.00,VWS V12.08,2013-03-03 08:30:00,
2013-03-03 03:35:00,31.1,25.7,29.71,WNW,301,7.5,18.8,80,6.26,,---,0.00,VWS V12.08,2013-03-03 08:35:00,
2013-03-03 03:40:00,30.9,25.4,29.71,NW,321,4.6,18.8,80,6.26,,---,0.00,VWS V12.08,2013-03-03 08:40:00,
2013-03-03 03:45:00,31.1,25.6,29.71,WNW,283,9.3,18.8,80,6.26,,---,0.00,VWS V12.08,2013-03-03 08:45:00,
2013-03-03 03:50:00,30.8,25.3,29.71,NW,304,8.4,18.8,80,6.26,,---,0.00,VWS V12.08,2013-03-03 08:50:00,
2013-03-03 03:55:00,31.0,25.4,29.71,NW,315,8.7,18.8,80,6.26,,---,0.00,VWS V12.08,2013-03-03 08:55:00,
2013-03-03 04:00:00,30.9,25.3,29.71,West,274,8.1,18.8,80,6.26,,---,0.00,VWS V12.08,2013-03-03 09:00:00,
2013-03-03 04:05:00,38.5,28.8,29.82,West,263,5.8,36.2,68,1.03,,---,0.00,VWS V12.08,2013-03-03 09:05:00,
2013-03-03 04:10:00,30.9,25.3,29.71,WNW,283,8.9,18.8,79,6.26,,---,0.00,VWS V12.08,2013-03-03 09:10:00,
2013-03-03 04:15:00,30.9,25.3,29.71,WNW,288,9.9,0.0,79,6.26,,---,0.00,VWS V12.08,2013-03-03 09:15:00,
2013-03-03 04:20:00,30.9,25.3,29.71,WNW,297,5.2,0.0,79,6.26,,---,0.00,VWS V12.08,2013-03-03 09:20:00,
2013-03-03 04:25:00,36.3,26.9,29.93,WNW,297,4.7,21.4,68,0.00,,---,0.00,VWS V12.08,2013-03-03 09:25:00,
2013-03-03 04:30:00,31.1,25.4,29.72,NNW,336,8.1,0.0,79,6.26,,---,0.00,VWS V12.08,2013-03-03 09:30:00,
2013-03-03 04:35:00,45.4,40.4,30.17,ENE,68,0.0,0.0,82,0.00,,---,0.00,VWS V12.08,2013-03-03 09:35:00,
2013-03-03 04:40:00,30.4,24.6,29.72,NNE,27,6.3,18.8,79,6.26,,---,0.00,VWS V12.08,2013-03-03 09:40:00,
2013-03-03 04:45:00,30.6,24.8,29.72,NNW,338,9.8,18.8,79,6.26,,---,0.00,VWS V12.08,2013-03-03 09:45:00,
2013-03-03 04:50:00,35.0,35.0,29.90,NNW,332,0.0,12.4,100,0.10,,---,0.10,VWS V12.08,2013-03-03 09:50:00,
2013-03-03 04:55:00,32.5,32.5,29.58,WNW,300,9.3,17.1,100,0.00,,---,0.00,VWS V12.08,2013-03-03 09:55:00,
2013-03-03 05:00:00,30.7,24.7,29.72,NW,321,3.2,0.0,78,6.26,,---,0.00,VWS V12.08,2013-03-03 10:00:00,
2013-03-03 05:05:00,36.2,28.8,30.23,WNW,295,0.0,22.9,74,0.00,,---,0.00,VWS V12.08,2013-03-03 10:05:00,
2013-03-03 05:10:00,31.0,25.0,29.72,WNW,300,7.8,18.8,78,6.26,,---,0.00,VWS V12.08,2013-03-03 10:10:00,
2013-03-03 05:15:00,30.7,24.7,29.72,WNW,290,10.0,0.0,78,6.26,,---,0.00,VWS V12.08,2013-03-03 10:15:00,
2013-03-03 05:20:00,35.0,35.0,29.90,NNW,332,0.0,12.4,100,0.10,,---,0.10,VWS V12.08,2013-03-03 10:20:00,
2013-03-03 05:25:00,30.6,24.6,29.72,WNW,300,9.4,0.0,78,6.26,,---,0.00,VWS V12.08,2013-03-03 10:25:00,
2013-03-03 05:30:00,30.8,24.7,29.72,West,267,8.4,18.8,78,6.26,,---,0.00,VWS V12.08,2013-03-03 10:30:00,
2013-03-03 05:35:00,30.9,24.7,29.72,West,269,4.8,18.8,78,6.26,,---,0.00,VWS V12.08,2013-03-03 10:35:00,
2013-03-03 05:40:00,30.1,23.9,29.73,WNW,297,7.2,0.0,78,6.26,,---,0.00,VWS V12.08,2013-03-03 10:40:00,
2013-03-03 05:45:00,30.5,24.3,29.73,NW,312,7.7,18.8,78,6.26,,---,0.00,VWS V12.08,2013-03-03 10:45:00,
2013-03-03 05:50:00,30.3,24.1,29.72,NW,307,9.8,0.0,78,6.26,,---,0.00,VWS V12.08,2013-03-03 10:50:00,
2013-03-03 05:55:00,30.5,24.3,29.73,NW,309,11.6,18.8,78,6.26,,---,0.00,VWS V12.08,2013-03-03 10:55:00,
2013-03-03 06:00:00,30.3,24.1,29.73,NW,305,9.9,18.8,78,6.26,,---,0.00,VWS V12.08,2013-03-03 11:00:00,
2013-03-03 06:05:00,30.3,24.1,29.73,NW,314,8.0,18.8,78,6.26,,---,0.00,VWS V12.08,2013-03-03 11:05:00,
2013-03-03 06:10:00,39.3,32.1,30.12,WNW,297,4.8,10.8,75,0.00,,---,0.00,VWS V12.08,2013-03-03 11:10:00,
2013-03-03 06:15:00,30.2,24.1,29.73,NW,314,6.3,18.8,78,6.26,,---,0.00,VWS V12.08,2013-03-03 11:15:00,
2013-03-03 06:19:00,30.0,24.0,29.73,NW,316,9.5,0.0,78,6.26,,---,0.00,VWS V12.08,2013-03-03 11:19:00,
2013-03-03 06:24:00,30.1,24.0,29.73,West,277,7.1,18.8,78,6.26,,---,0.00,VWS V12.08,2013-03-03 11:24:00,
2013-03-03 06:29:00,30.2,24.1,29.73,NW,305,8.9,18.8,78,6.26,,---,0.00,VWS V12.08,2013-03-03 11:29:00,
2013-03-03 06:34:00,36.0,26.8,29.93,West,263,2.1,12.0,69,0.00,,---,0.00,VWS V12.08,2013-03-03 11:34:00,
2013-03-03 06:39:00,30.0,24.0,29.73,WNW,284,6.3,0.0,78,6.26,,---,0.00,VWS V12.08,2013-03-03 11:39:00,
2013-03-03 06:44:00,30.2,24.2,29.73,WNW,283,8.8,0.0,78,6.26,,---,0.00,VWS V12.08,2013-03-03 11:44:00,
2013-03-03 06:49:00,30.3,24.2,29.73,WNW,294,5.2,0.0,78,6.26,,---,0.00,VWS V12.08,2013-03-03 11:49:00,
2013-03-03 06:54:00,30.4,24.4,29.73,NW,323,5.1,18.8,78,6.26,,---,0.00,VWS V12.08,2013-03-03 11:54:00,
2013-03-03 06:59:00,30.1,24.1,29.73,WNW,301,7.6,18.8,78,6.26,,---,0.00,VWS V12.08,2013-03-03 11:59:00,
2013-03-03 07:04:00,30.4,24.4,29.74,NW,305,4.3,18.8,78,6.26,,---,0.00,VWS V12.08,2013-03-03 12:04:00,
2013-03-03 07:09:00,29.1,27.7,30.03,WNW,291,0.0,30.0,94,0.88,,---,0.00,VWS V12.08,2013-03-03 12:09:00,
2013-03-03 07:14:00,30.1,24.0,29.74,WNW,295,10.7,18.8,78,6.26,,---,0.00,VWS V12.08,2013-03-03 12:14:00,
2013-03-03 07:19:00,49.1,49.0,29.71,East,97,12.7,19.7,100,0.10,,---,0.10,VWS V12.08,2013-03-03 12:19:00,
2013-03-03 07:24:00,43.7,43.7,29.87,North,6,0.0,17.8,100,0.63,,---,0.63,VWS V12.08,2013-03-03 12:24:00,
2013-03-03 07:29:00,45.0,45.0,29.59,NNE,17,6.0,16.0,100,1.01,,---,0.35,VWS V12.08,2013-03-03 12:29:00,
2013-03-03 07:34:00,37.6,35.2,29.32,South,180,0.0,45.1,91,1.13,,---,1.03,VWS V12.08,2013-03-03 12:34:00,
2013-03-03 07:39:00,30.2,23.9,29.74,WNW,294,13.9,0.0,77,6.26,,---,0.00,VWS V12.08,2013-03-03 12:39:00,
2013-03-03 07:44:00,41.4,39.5,30.51,NNW,330,5.0,10.5,93,0.00,,---,0.00,VWS V12.08,2013-03-03 12:44:00,
2013-03-03 07:49:00,42.1,42.1,29.99,NNW,346,0.0,12.0,100,0.25,,---,0.25,VWS V12.08,2013-03-03 12:49:00,
2013-03-03 07:54:00,40.7,36.0,30.19,NNW,329,5.5,7.7,83,0.05,,---,0.05,VWS V12.08,2013-03-03 12:54:00,
2013-03-03 07:59:00,49.6,48.3,29.65,SE,124,5.3,15.3,95,0.00,,---,0.00,VWS V12.08,2013-03-03 12:59:00,
2013-03-03 08:04:00,39.5,38.9,30.21,NW,315,0.0,15.0,98,0.00,,---,0.00,VWS V12.08,2013-03-03 13:04:00,
2013-03-03 08:09:00,36.3,24.0,29.83,WNW,283,10.6,26.2,60,0.00,,---,0.00,VWS V12.08,2013-03-03 13:09:00,
2013-03-03 08:14:00,42.7,37.2,29.75,South,179,3.1,13.2,81,0.00,,---,0.00,VWS V12.08,2013-03-03 13:14:00,
2013-03-03 08:19:00,39.5,38.9,30.21,NW,315,0.0,15.0,98,0.00,,---,0.00,VWS V12.08,2013-03-03 13:19:00,
2013-03-03 08:24:00,36.3,24.0,29.83,WNW,283,10.6,26.2,60,0.00,,---,0.00,VWS V12.08,2013-03-03 13:24:00,
2013-03-03 08:29:00,30.8,24.1,29.74,WNW,292,12.0,0.0,76,6.26,,---,0.00,VWS V12.08,2013-03-03 13:29:00,
2013-03-03 08:34:00,31.3,24.4,29.74,NW,315,13.7,18.8,75,6.26,,---,0.00,VWS V12.08,2013-03-03 13:34:00,
2013-03-03 08:39:00,36.6,36.6,30.19,North,4,0.0,12.4,100,0.55,,---,0.55,VWS V12.08,2013-03-03 13:39:00,
2013-03-03 08:44:00,31.3,24.3,29.74,NW,321,5.0,18.8,75,6.26,,---,0.00,VWS V12.08,2013-03-03 13:44:00,
2013-03-03 08:49:00,42.0,38.4,30.18,SW,231,0.0,0.0,87,0.00,,---,0.00,VWS V12.08,2013-03-03 13:49:00,
2013-03-03 08:54:00,31.4,24.2,29.74,NW,319,5.7,0.0,74,6.26,,---,0.00,VWS V12.08,2013-03-03 13:54:00,
2013-03-03 08:59:00,42.5,37.6,29.96,West,260,5.5,13.0,83,0.00,,---,0.00,VWS V12.08,2013-03-03 13:59:00,
2013-03-03 09:04:00,31.9,24.6,29.74,WNW,301,5.0,0.0,74,6.26,,---,0.00,VWS V12.08,2013-03-03 14:04:00,
2013-03-03 09:09:00,37.5,31.1,30.43,NW,316,5.0,24.0,77,0.11,,---,0.00,VWS V12.08,2013-03-03 14:09:00,
2013-03-03 09:14:00,49.7,49.3,30.43,SE,142,0.0,5.6,99,0.00,,---,0.00,VWS V12.08,2013-03-03 14:14:00,
2013-03-03 09:19:00,37.9,30.8,29.91,North,354,5.5,10.5,75,0.40,,---,0.40,VWS V12.08,2013-03-03 14:19:00,
2013-03-03 09:24:00,32.3,24.6,29.73,WNW,295,13.0,0.0,73,6.26,,---,0.00,VWS V12.08,2013-03-03 14:24:00,
2013-03-03 09:29:00,42.8,38.0,29.96,WNW,287,0.0,17.9,83,0.00,,---,0.00,VWS V12.08,2013-03-03 14:29:00,
2013-03-03 09:34:00,43.0,38.3,29.75,SW,236,4.7,12.3,83,0.00,,---,0.00,VWS V12.08,2013-03-03 14:34:00,
2013-03-03 09:39:00,44.5,38.0,29.74,WNW,298,11.1,15.2,78,0.00,,---,0.00,VWS V12.08,2013-03-03 14:39:00,
2013-03-03 09:44:00,45.2,38.5,29.73,WNW,283,10.8,19.6,77,0.00,,---,0.00,VWS V12.08,2013-03-03 14:44:00,
2013-03-03 09:49:00,32.9,24.9,29.72,NW,305,11.6,18.8,72,6.26,,---,0.00,VWS V12.08,2013-03-03 14:49:00,
2013-03-03 09:54:00,32.4,24.4,29.72,WNW,283,12.2,18.8,72,6.26,,---,0.00,VWS V12.08,2013-03-03 14:54:00,
2013-03-03 09:59:00,33.0,24.9,29.72,NW,318,6.3,18.8,72,6.26,,---,0.00,VWS V12.08,2013-03-03 14:59:00,
2013-03-03 10:04:00,33.1,25.0,29.72,WNW,300,9.8,18.8,72,6.26,,---,0.00,VWS V12.08,2013-03-03 15:04:00,
2013-03-03 10:09:00,33.4,25.1,29.72,NW,311,14.2,18.8,71,6.26,,---,0.00,VWS V12.08,2013-03-03 15:09:00,
2013-03-03 10:14:00,33.5,25.0,29.72,WNW,300,10.4,18.8,71,6.26,,---,0.00,VWS V12.08,2013-03-03 15:14:00,
2013-03-03 10:19:00,33.2,24.7,29.72,NW,325,13.0,18.8,71,6.26,,---,0.00,VWS V12.08,2013-03-03 15:19:00,
2013-03-03 10:24:00,33.3,24.8,29.72,WNW,295,12.9,18.8,71,6.26,,---,0.00,VWS V12.08,2013-03-03 15:24:00,
2013-03-03 10:29:00,33.2,24.7,29.72,WNW,294,7.5,18.8,70,6.26,,---,0.00,VWS V12.08,2013-03-03 15:29:00,
2013-03-03 10:34:00,33.9,25.3,29.72,WSW,240,4.8,18.8,70,6.26,,---,0.00,VWS V12.08,2013-03-03 15:34:00,
2013-03-03 10:39:00,33.9,25.2,29.72,West,280,7.7,18.8,70,6.26,,---,0.00,VWS V12.08,2013-03-03 15:39:00,
2013-03-03 10:44:00,34.2,25.2,29.72,WNW,291,7.2,18.8,69,6.26,,---,0.00,VWS V12.08,2013-03-03 15:44:00,
2013-03-03 10:49:00,34.6,25.4,29.71,WNW,285,8.8,18.8,69,6.26,,---,0.00,VWS V12.08,2013-03-03 15:49:00,
2013-03-03 10:54:00,34.3,25.1,29.72,NW,309,10.9,0.0,69,6.26,,---,0.00,VWS V12.08,2013-03-03 15:54:00,
2013-03-03 10:59:00,34.8,25.6,29.71,NNW,332,6.7,18.8,69,6.26,,---,0.00,VWS V12.08,2013-03-03 15:59:00,
2013-03-03 11:04:00,35.8,26.0,29.71,West,280,11.7,0.0,67,6.26,,---,0.00,VWS V12.08,2013-03-03 16:04:00,
2013-03-03 11:09:00,35.9,25.9,29.71,NNW,336,8.3,18.8,67,6.26,,---,0.00,VWS V12.08,2013-03-03 16:09:00,
2013-03-03 11:14:00,35.9,25.9,29.71,NNW,343,8.2,18.8,67,6.26,,---,0.00,VWS V12.08,2013-03-03 16:14:00,
2013-03-03 11:19:00,36.5,26.4,29.71,NW,309,6.0,18.8,66,6.26,,---,0.00,VWS V12.08,2013-03-03 16:19:00,
2013-03-03 11:24:00,36.8,26.3,29.71,NNW,330,6.1,18.8,65,6.26,,---,0.00,VWS V12.08,2013-03-03 16:24:00,
2013-03-03 11:29:00,36.5,25.6,29.71,WNW,288,7.2,18.8,64,6.26,,---,0.00,VWS V12.08,2013-03-03 16:29:00,
2013-03-03 11:34:00,36.9,26.0,29.71,WNW,300,12.4,18.8,64,6.26,,---,0.00,VWS V12.08,2013-03-03 16:34:00,
2013-03-03 11:39:00,36.8,25.5,29.71,South,179,10.3,18.8,63,6.26,,---,0.00,VWS V12.08,2013-03-03 16:39:00,
2013-03-03 11:44:00,36.5,25.2,29.71,West,273,7.5,18.8,63,6.26,,---,0.00,VWS V12.08,2013-03-03 16:44:00,
2013-03-03 11:49:00,36.6,25.5,29.71,WSW,249,4.8,18.8,64,6.26,,---,0.00,VWS V12.08,2013-03-03 16:49:00,
2013-03-03 11:54:00,37.4,26.3,29.71,NW,316,6.5,18.8,64,6.26,,---,0.00,VWS V12.08,2013-03-03 16:54:00,
2013-03-03 11:59:00,39.3,32.1,30.12,WNW,297,4.8,10.8,75,0.00,,---,0.00,VWS V12.08,2013-03-03 16:59:00,
2013-03-03 12:04:00,37.4,25.5,29.70,WNW,294,12.0,18.8,62,6.26,,---,0.00,VWS V12.08,2013-03-03 17:04:00,
2013-03-03 12:09:00,30.5,26.2,29.83,NW,315,11.4,25.4,84,0.88,,---,0.84,VWS V12.08,2013-03-03 17:09:00,
2013-03-03 12:14:00,38.4,26.1,29.70,WNW,290,11.2,18.8,61,6.26,,---,0.00,VWS V12.08,2013-03-03 17:14:00,
2013-03-03 12:19:00,38.6,25.8,29.69,WNW,302,14.7,18.8,60,6.26,,---,0.00,VWS V12.08,2013-03-03 17:19:00,
2013-03-03 12:24:00,38.7,26.0,29.69,NW,316,8.3,0.0,60,6.26,,---,0.00,VWS V12.08,2013-03-03 17:24:00,
2013-03-03 12:29:00,38.9,25.9,29.69,WNW,295,11.1,18.8,59,6.26,,---,0.00,VWS V12.08,2013-03-03 17:29:00,
2013-03-03 12:34:00,39.4,26.1,29.69,SW,235,7.1,18.8,59,6.26,,---,0.00,VWS V12.08,2013-03-03 17:34:00,
2013-03-03 12:39:00,39.6,26.3,29.69,WSW,246,9.6,18.8,58,6.26,,---,0.00,VWS V12.08,2013-03-03 17:39:00,
2013-03-03 12:44:00,39.9,26.2,29.69,West,266,12.6,18.8,58,6.26,,---,0.00,VWS V12.08,2013-03-03 17:44:00,
2013-03-03 12:49:00,39.9,26.0,29.68,WNW,302,5.1,0.0,57,6.26,,---,0.00,VWS V12.08,2013-03-03 17:49:00,
2013-03-03 12:54:00,39.9,25.9,29.68,West,271,6.1,18.8,57,6.26,,---,0.00,VWS V12.08,2013-03-03 17:54:00,
2013-03-03 12:59:00,37.7,35.5,29.32,West,280,6.8,13.3,92,1.03,,---,1.03,VWS V12.08,2013-03-03 17:59:00,
2013-03-03 13:04:00,40.2,26.3,29.67,West,267,7.6,0.0,57,6.26,,---,0.00,VWS V12.08,2013-03-03 18:04:00,
2013-03-03 13:09:00,40.4,26.5,29.68,WSW,255,4.8,18.8,57,6.26,,---,0.00,VWS V12.08,2013-03-03 18:09:00,
2013-03-03 13:14:00,40.5,26.4,29.67,WNW,290,7.6,18.8,57,6.26,,---,0.00,VWS V12.08,2013-03-03 18:14:00,
2013-03-03 13:19:00,40.3,26.2,29.67,SW,224,0.0,0.0,57,6.26,,---,0.00,VWS V12.08,2013-03-03 18:19:00,
2013-03-03 13:24:00,30.1,25.8,29.83,West,266,20.9,38.0,84,2.30,,---,0.84,VWS V12.08,2013-03-03 18:24:00,
2013-03-03 13:29:00,40.8,26.4,29.66,WNW,302,10.6,18.8,56,6.26,,---,0.00,VWS V12.08,2013-03-03 18:29:00,
2013-03-03 13:34:00,40.6,26.2,29.66,NW,307,16.6,18.8,56,6.26,,---,0.00,VWS V12.08,2013-03-03 18:34:00,
2013-03-03 13:39:00,37.7,32.5,30.21,SSW,208,0.0,0.0,81,0.00,,---,0.00,VWS V12.08,2013-03-03 18:39:00,
2013-03-03 13:44:00,41.1,26.4,29.66,NW,318,11.7,18.8,55,6.26,,---,0.00,VWS V12.08,2013-03-03 18:44:00,
2013-03-03 13:49:00,41.1,26.5,29.66,WNW,290,14.2,0.0,56,6.26,,---,0.00,VWS V12.08,2013-03-03 18:49:00,
2013-03-03 13:54:00,40.6,26.1,29.66,West,274,6.2,0.0,56,6.26,,---,0.00,VWS V12.08,2013-03-03 18:54:00,
2013-03-03 13:59:00,37.7,32.5,30.21,SSW,208,0.0,0.0,81,0.00,,---,0.00,VWS V12.08,2013-03-03 18:59:00,
2013-03-03 14:04:00,40.5,26.2,29.66,WSW,239,6.6,18.8,56,6.26,,---,0.00,VWS V12.08,2013-03-03 19:04:00,
2013-03-03 14:09:00,37.6,35.2,29.32,South,180,0.0,45.1,91,1.13,,---,1.03,VWS V12.08,2013-03-03 19:09:00,
2013-03-03 14:14:00,37.8,33.1,30.39,NW,304,4.4,8.1,83,0.00,,---,0.00,VWS V12.08,2013-03-03 19:14:00,
2013-03-03 14:19:00,40.5,26.0,29.65,West,276,8.1,0.0,56,6.26,,---,0.00,VWS V12.08,2013-03-03 19:19:00,
2013-03-03 14:24:00,40.2,25.8,29.66,NW,316,11.7,19.3,56,6.26,,---,0.00,VWS V12.08,2013-03-03 19:24:00,
2013-03-03 14:29:00,40.4,26.1,29.66,WSW,256,5.2,19.3,56,6.26,,---,0.00,VWS V12.08,2013-03-03 19:29:00,
2013-03-03 14:34:00,40.1,25.9,29.66,NW,321,3.1,19.3,56,6.26,,---,0.00,VWS V12.08,2013-03-03 19:34:00,
2013-03-03 14:38:00,40.0,25.8,29.66,WNW,294,11.8,0.0,56,6.26,,---,0.00,VWS V12.08,2013-03-03 19:38:00,
2013-03-03 14:43:00,40.0,25.9,29.66,WSW,249,4.8,19.9,57,6.26,,---,0.00,VWS V12.08,2013-03-03 19:43:00,
2013-03-03 14:48:00,40.0,26.0,29.66,West,270,4.9,0.0,57,6.26,,---,0.00,VWS V12.08,2013-03-03 19:48:00,
2013-03-03 14:53:00,40.4,26.5,29.66,NW,315,9.4,19.9,57,6.26,,---,0.00,VWS V12.08,2013-03-03 19:53:00,
2013-03-03 14:58:00,49.6,48.3,29.65,SE,124,5.3,15.3,95,0.00,,---,0.00,VWS V12.08,2013-03-03 19:58:00,
2013-03-03 15:03:00,40.0,25.9,29.66,WNW,288,6.8,19.9,57,6.26,,---,0.00,VWS V12.08,2013-03-03 20:03:00,
2013-03-03 15:08:00,34.6,30.6,30.25,South,184,5.2,10.0,85,0.00,,---,0.00,VWS V12.08,2013-03-03 20:08:00,
2013-03-03 15:13:00,39.8,25.7,29.65,West,270,9.9,19.9,57,6.26,,---,0.00,VWS V12.08,2013-03-03 20:13:00,
2013-03-03 15:18:00,40.1,25.9,29.66,West,263,5.8,19.9,57,6.26,,---,0.00,VWS V12.08,2013-03-03 20:18:00,
2013-03-03 15:23:00,38.9,31.6,30.29,WSW,252,5.8,18.4,75,0.04,,---,0.00,VWS V12.08,2013-03-03 20:23:00,
2013-03-03 15:28:00,47.3,47.3,30.23,NW,322,0.0,5.5,100,0.00,,---,0.00,VWS V12.08,2013-03-03 20:28:00,
2013-03-03 15:33:00,39.9,25.8,29.66,West,263,9.9,19.9,57,6.26,,---,0.00,VWS V12.08,2013-03-03 20:33:00,
2013-03-03 15:38:00,39.8,25.9,29.66,NW,307,8.9,19.9,57,6.26,,---,0.00,VWS V12.08,2013-03-03 20:38:00,
2013-03-03 15:43:00,39.8,26.0,29.66,North,359,5.2,19.9,57,6.26,,---,0.00,VWS V12.08,2013-03-03 20:43:00,
2013-03-03 15:48:00,39.9,26.2,29.66,WNW,301,8.1,19.9,58,6.26,,---,0.00,VWS V12.08,2013-03-03 20:48:00,
2013-03-03 15:53:00,49.1,49.0,29.71,East,97,12.7,19.7,100,0.10,,---,0.10,VWS V12.08,2013-03-03 20:53:00,
2013-03-03 15:58:00,39.5,25.9,29.66,West,271,15.7,0.0,58,6.26,,---,0.00,VWS V12.08,2013-03-03 20:58:00,
2013-03-03 16:03:00,39.4,26.0,29.66,NW,311,11.4,19.9,58,6.26,,---,0.00,VWS V12.08,2013-03-03 21:03:00,
2013-03-03 16:08:00,39.6,26.4,29.66,WNW,298,11.3,0.0,59,6.26,,---,0.00,VWS V12.08,2013-03-03 21:08:00,
2013-03-03 16:13:00,33.7,32.0,30.29,NE,38,0.0,0.0,93,0.00,,---,0.00,VWS V12.08,2013-03-03 21:13:00,
2013-03-03 16:18:00,52.8,52.8,29.92,SSE,165,5.8,8.0,100,0.13,,---,0.13,VWS V12.08,2013-03-03 21:18:00,
2013-03-03 16:23:00,39.0,26.4,29.67,NW,318,4.7,19.9,60,6.26,,---,0.00,VWS V12.08,2013-03-03 21:23:00,
2013-03-03 16:28:00,57.1,57.1,29.55,West,264,0.0,9.9,100,0.30,,---,0.03,VWS V12.08,2013-03-03 21:28:00,
2013-03-03 16:33:00,38.7,26.5,29.67,WNW,292,9.5,19.9,61,6.26,,---,0.00,VWS V12.08,2013-03-03 21:33:00,
2013-03-03 16:38:00,48.8,48.8,29.73,East,80,10.4,19.7,100,0.09,,---,0.09,VWS V12.08,2013-03-03 21:38:00,
2013-03-03 16:43:00,38.2,26.3,29.67,West,266,9.9,19.9,62,6.26,,---,0.00,VWS V12.08,2013-03-03 21:43:00,
2013-03-03 16:48:00,38.1,26.3,29.67,WNW,302,10.9,0.0,62,6.26,,---,0.00,VWS V12.08,2013-03-03 21:48:00,
2013-03-03 16:53:00,38.3,26.5,29.67,WNW,294,7.5,0.0,62,6.26,,---,0.00,VWS V12.08,2013-03-03 21:53:00,
2013-03-03 16:58:00,49.9,49.9,30.08,SSW,207,6.3,11.3,100,0.03,,---,0.03,VWS V12.08,2013-03-03 21:58:00,
2013-03-03 17:03:00,37.9,26.2,29.68,WNW,287,13.0,19.9,62,6.26,,---,0.00,VWS V12.08,2013-03-03 22:03:00,
2013-03-03 17:08:00,33.7,32.0,30.29,NE,38,0.0,0.0,93,0.00,,---,0.00,VWS V12.08,2013-03-03 22:08:00,
2013-03-03 17:13:00,37.2,25.8,29.68,WNW,292,7.3,22.5,63,6.26,,---,0.00,VWS V12.08,2013-03-03 22:13:00,
2013-03-03 17:18:00,37.5,26.3,29.68,WNW,297,11.2,22.5,64,6.26,,---,0.00,VWS V12.08,2013-03-03 22:18:00,
2013-03-03 17:23:00,37.4,26.3,29.68,WNW,287,13.2,22.5,64,6.26,,---,0.00,VWS V12.08,2013-03-03 22:23:00,
2013-03-03 17:28:00,39.3,39.3,29.46,North,1,10.8,31.8,100,1.39,,---,1.33,VWS V12.08,2013-03-03 22:28:00,
2013-03-03 17:33:00,36.6,25.8,29.68,West,278,9.6,22.5,65,6.26,,---,0.00,VWS V12.08,2013-03-03 22:33:00,
2013-03-03 17:38:00,36.5,25.8,29.69,WNW,284,11.2,22.5,65,6.26,,---,0.00,VWS V12.08,2013-03-03 22:38:00,
2013-03-03 17:43:00,36.0,25.3,29.69,WNW,292,14.0,22.5,65,6.26,,---,0.00,VWS V12.08,2013-03-03 22:43:00,
2013-03-03 17:48:00,36.0,25.4,29.69,WNW,301,9.4,22.5,65,6.26,,---,0.00,VWS V12.08,2013-03-03 22:48:00,
2013-03-03 17:53:00,35.9,25.4,29.69,West,271,6.6,0.0,65,6.26,,---,0.00,VWS V12.08,2013-03-03 22:53:00,
2013-03-03 17:58:00,35.5,27.5,30.22,North,359,5.6,17.0,72,0.01,,---,0.01,VWS V12.08,2013-03-03 22:58:00,
2013-03-03 18:03:00,35.5,25.2,29.69,West,262,6.9,0.0,66,6.26,,---,0.00,VWS V12.08,2013-03-03 23:03:00,
2013-03-03 18:08:00,39.1,36.7,30.42,NNE,21,5.8,15.4,91,0.00,,---,0.00,VWS V12.08,2013-03-03 23:08:00,
2013-03-03 18:13:00,35.5,25.3,29.69,West,271,11.2,22.5,66,6.26,,---,0.00,VWS V12.08,2013-03-03 23:13:00,
2013-03-03 18:18:00,39.3,32.1,30.12,WNW,297,4.8,10.8,75,0.00,,---,0.00,VWS V12.08,2013-03-03 23:18:00,
2013-03-03 18:23:00,45.4,40.4,30.17,ENE,68,0.0,0.0,82,0.00,,---,0.00,VWS V12.08,2013-03-03 23:23:00,
2013-03-03 18:28:00,33.7,32.0,30.29,NE,38,0.0,0.0,93,0.00,,---,0.00,VWS V12.08,2013-03-03 23:28:00,
2013-03-03 18:33:00,54.0,54.0,29.58,WNW,285,19.9,23.6,100,0.03,,---,0.03,VWS V12.08,2013-03-03 23:33:00,
2013-03-03 18:38:00,57.1,57.1,29.55,West,264,0.0,9.9,100,0.30,,---,0.03,VWS V12.08,2013-03-03 23:38:00,
2013-03-03 18:43:00,45.0,45.0,29.97,North,359,6.3,15.2,100,0.53,,---,0.27,VWS V12.08,2013-03-03 23:43:00,
2013-03-03 18:48:00,35.5,27.5,30.22,North,359,5.6,17.0,72,0.01,,---,0.01,VWS V12.08,2013-03-03 23:48:00,
2013-03-03 18:53:00,47.0,47.0,30.23,WNW,300,0.0,14.8,100,0.03,,---,0.00,VWS V12.08,2013-03-03 23:53:00,
2013-03-03 18:58:00,34.8,24.9,29.71,West,278,8.6,0.0,67,6.26,,---,0.00,VWS V12.08,2013-03-03 23:58:00,
2013-03-03 19:03:00,38.9,31.6,30.29,WSW,252,5.8,18.4,75,0.04,,---,0.00,VWS V12.08,2013-03-04 00:03:00,
2013-03-03 19:08:00,36.6,36.6,30.19,North,4,0.0,12.4,100,0.55,,---,0.55,VWS V12.08,2013-03-04 00:08:00,
2013-03-03 19:13:00,36.9,28.2,29.94,SSW,212,6.6,17.4,70,0.00,,---,0.00,VWS V12.08,2013-03-04 00:13:00,
2013-03-03 19:18:00,41.2,41.2,30.10,South,173,0.0,11.1,100,0.00,,---,0.00,VWS V12.08,2013-03-04 00:18:00,
2013-03-03 19:23:00,39.9,35.8,30.61,NW,322,0.0,6.6,85,0.00,,---,0.00,VWS V12.08,2013-03-04 00:23:00,
2013-03-03 19:28:00,37.2,32.8,30.42,NNW,339,5.8,15.9,84,0.00,,---,0.00,VWS V12.08,2013-03-04 00:28:00,
2013-03-03 19:33:00,45.5,43.3,30.39,South,170,0.0,10.6,92,0.00,,---,0.00,VWS V12.08,2013-03-04 00:33:00,
2013-03-03 19:38:00,37.4,31.2,30.43,WNW,302,0.0,7.8,78,0.00,,---,0.00,VWS V12.08,2013-03-04 00:38:00,
2013-03-03 19:43:00,33.4,24.0,29.73,WNW,295,9.8,0.0,68,6.26,,---,0.00,VWS V12.08,2013-03-04 00:43:00,
2013-03-03 19:48:00,37.1,28.4,30.05,West,260,1.3,13.2,70,0.00,,---,0.00,VWS V12.08,2013-03-04 00:48:00,
2013-03-03 19:53:00,32.8,23.7,29.73,West,278,6.4,22.5,69,6.26,,---,0.00,VWS V12.08,2013-03-04 00:53:00,
2013-03-03 19:58:00,36.7,28.2,30.04,North,359,6.6,12.1,71,0.00,,---,0.00,VWS V12.08,2013-03-04 00:58:00,
2013-03-03 20:03:00,44.5,38.8,29.74,WSW,239,7.9,14.0,80,0.00,,---,0.00,VWS V12.08,2013-03-04 01:03:00,
2013-03-03 20:08:00,42.7,37.6,29.75,NW,307,9.3,16.6,82,0.00,,---,0.00,VWS V12.08,2013-03-04 01:08:00,
2013-03-03 20:13:00,33.2,24.2,29.74,WNW,290,12.1,22.5,69,6.26,,---,0.00,VWS V12.08,2013-03-04 01:13:00,
2013-03-03 20:18:00,32.6,23.6,29.74,WNW,288,11.0,22.5,69,6.26,,---,0.00,VWS V12.08,2013-03-04 01:18:00,
2013-03-03 20:23:00,32.3,23.4,29.74,NW,314,8.8,22.5,69,6.26,,---,0.00,VWS V12.08,2013-03-04 01:23:00,
2013-03-03 20:28:00,45.7,38.4,29.73,West,277,13.4,17.9,75,0.00,,---,0.00,VWS V12.08,2013-03-04 01:28:00,
2013-03-03 20:33:00,46.6,38.0,29.71,West,276,17.2,18.0,72,0.00,,---,0.00,VWS V12.08,2013-03-04 01:33:00,
2013-03-03 20:38:00,31.9,23.3,29.74,NW,311,6.1,22.5,70,6.26,,---,0.00,VWS V12.08,2013-03-04 01:38:00,
2013-03-03 20:43:00,32.4,23.8,29.74,West,271,10.4,22.5,70,6.26,,---,0.00,VWS V12.08,2013-03-04 01:43:00,
2013-03-03 20:48:00,32.2,23.7,29.74,West,271,12.2,22.5,70,6.26,,---,0.00,VWS V12.08,2013-03-04 01:48:00,
2013-03-03 20:53:00,32.0,23.5,29.74,NW,304,5.3,0.0,71,6.26,,---,0.00,VWS V12.08,2013-03-04 01:53:00,
2013-03-03 20:58:00,31.8,23.4,29.74,NW,315,10.1,22.5,71,6.26,,---,0.00,VWS V12.08,2013-03-04 01:58:00,
2013-03-03 21:03:00,31.7,23.3,29.74,WSW,257,6.0,22.5,71,6.26,,---,0.00,VWS V12.08,2013-03-04 02:03:00,
2013-03-03 21:08:00,31.7,23.4,29.74,West,259,7.1,22.5,71,6.26,,---,0.00,VWS V12.08,2013-03-04 02:08:00,
2013-03-03 21:13:00,31.7,23.4,29.74,West,278,7.0,22.5,71,6.26,,---,0.00,VWS V12.08,2013-03-04 02:13:00,
2013-03-03 21:18:00,31.5,23.3,29.74,WNW,284,8.5,22.5,71,6.26,,---,0.00,VWS V12.08,2013-03-04 02:18:00,
2013-03-03 21:23:00,31.7,23.5,29.74,NW,309,4.9,22.5,71,6.26,,---,0.00,VWS V12.08,2013-03-04 02:23:00,
2013-03-03 21:28:00,31.2,23.0,29.74,WNW,295,6.0,22.5,71,6.26,,---,0.00,VWS V12.08,2013-03-04 02:28:00,
2013-03-03 21:33:00,31.2,23.1,29.74,WNW,295,10.7,22.5,72,6.26,,---,0.00,VWS V12.08,2013-03-04 02:33:00,
2013-03-03 21:38:00,31.2,23.2,29.75,WSW,257,4.7,22.5,72,6.26,,---,0.00,VWS V12.08,2013-03-04 02:38:00,
2013-03-03 21:42:00,30.9,22.9,29.75,NW,304,8.9,22.5,72,6.26,,---,0.00,VWS V12.08,2013-03-04 02:42:00,
2013-03-03 21:47:00,31.0,23.0,29.75,West,271,8.7,22.5,72,6.26,,---,0.00,VWS V12.08,2013-03-04 02:47:00,
2013-03-03 21:52:00,30.7,22.7,29.75,WNW,284,8.8,22.5,72,6.26,,---,0.00,VWS V12.08,2013-03-04 02:52:00,
2013-03-03 21:57:00,30.5,22.6,29.75,NW,309,8.8,22.5,72,6.26,,---,0.00,VWS V12.08,2013-03-04 02:57:00,
2013-03-03 22:02:00,30.6,22.8,29.75,WNW,284,7.7,22.5,72,6.26,,---,0.00,VWS V12.08,2013-03-04 03:02:00,
2013-03-03 22:07:00,30.5,22.7,29.74,NW,314,12.3,22.5,72,6.26,,---,0.00,VWS V12.08,2013-03-04 03:07:00,
2013-03-03 22:12:00,39.6,39.6,29.46,North,8,15.7,30.4,100,1.42,,---,1.42,VWS V12.08,2013-03-04 03:12:00,
2013-03-03 22:17:00,30.3,22.6,29.74,WNW,284,11.0,22.5,73,6.26,,---,0.00,VWS V12.08,2013-03-04 03:17:00,
2013-03-03 22:22:00,29.3,28.0,30.01,WNW,291,0.0,0.0,95,0.00,,---,0.00,VWS V12.08,2013-03-04 03:22:00,
2013-03-03 22:27:00,30.6,23.0,29.74,West,280,11.6,22.5,73,6.26,,---,0.00,VWS V12.08,2013-03-04 03:27:00,
2013-03-03 22:32:00,37.7,35.5,29.32,West,280,6.8,13.3,92,1.03,,---,1.03,VWS V12.08,2013-03-04 03:32:00,
2013-03-03 22:37:00,28.5,22.4,30.16,WSW,250,3.4,30.4,78,0.03,,---,0.03,VWS V12.08,2013-03-04 03:37:00,
2013-03-03 22:42:00,30.1,22.8,29.75,NNW,329,7.2,0.0,74,6.26,,---,0.00,VWS V12.08,2013-03-04 03:42:00,
2013-03-03 22:47:00,30.0,22.6,29.75,WNW,284,12.4,22.5,74,6.26,,---,0.00,VWS V12.08,2013-03-04 03:47:00,
2013-03-03 22:52:00,29.8,22.4,29.75,West,276,6.1,22.5,74,6.26,,---,0.00,VWS V12.08,2013-03-04 03:52:00,
2013-03-03 22:57:00,29.8,22.4,29.75,WNW,291,8.1,22.5,74,6.26,,---,0.00,VWS V12.08,2013-03-04 03:57:00,
2013-03-03 23:02:00,29.9,22.5,29.75,WNW,292,17.8,0.0,74,6.26,,---,0.00,VWS V12.08,2013-03-04 04:02:00,
2013-03-03 23:07:00,29.6,22.2,29.75,WNW,300,7.8,22.5,74,6.26,,---,0.00,VWS V12.08,2013-03-04 04:07:00,
2013-03-03 23:12:00,45.6,40.4,30.17,ENE,68,0.0,9.5,82,0.00,,---,0.00,VWS V12.08,2013-03-04 04:12:00,
2013-03-03 23:17:00,29.5,22.2,29.75,NNW,333,9.5,22.5,74,6.26,,---,0.00,VWS V12.08,2013-03-04 04:17:00,
2013-03-03 23:22:00,49.9,49.9,30.08,SSW,207,6.3,11.3,100,0.03,,---,0.03,VWS V12.08,2013-03-04 04:22:00,
2013-03-03 23:27:00,29.6,22.5,29.75,West,280,10.4,0.0,74,6.26,,---,0.00,VWS V12.08,2013-03-04 04:27:00,
2013-03-03 23:32:00,43.6,43.6,29.87,ENE,66,4.3,11.7,100,0.65,,---,0.65,VWS V12.08,2013-03-04 04:32:00,
2013-03-03 23:37:00,57.1,57.1,29.55,West,264,0.0,9.9,100,0.30,,---,0.03,VWS V12.08,2013-03-04 04:37:00,
2013-03-03 23:42:00,37.6,35.2,29.32,South,180,0.0,45.1,91,1.13,,---,1.03,VWS V12.08,2013-03-04 04:42:00,
2013-03-03 23:47:00,39.8,32.2,30.12,NNW,347,0.0,27.2,74,0.54,,---,0.00,VWS V12.08,2013-03-04 04:47:00,
2013-03-03 23:52:00,29.1,27.7,30.03,WNW,291,0.0,30.0,94,0.88,,---,0.00,VWS V12.08,2013-03-04 04:52:00,
2013-03-03 23:57:00,29.3,22.1,29.76,WNW,291,11.3,0.0,74,6.26,,---,0.00,VWS V12.08,2013-03-04 04:57:00,